This is the latest recevied weather packets stored in our database for station/object IZ1UQG-2. If no packets are shown the sender has not sent any weather packets the latest 10 day(s).
| Time | Temp. | Humidity | Pressure | Rain* | Wind** | Luminosity | Snow |
|---|---|---|---|---|---|---|---|
| 1777311669 | 22.78° C | 54% | 1012.1 hPa | 0 mm | - | 30 W/m² | - |
| 1777311549 | 22.78° C | 54% | 1012 hPa | 0 mm | - | 30 W/m² | - |
| 1777311309 | 22.78° C | 53% | 1011.9 hPa | 0 mm | - | 33 W/m² | - |
| 1777310350 | 23.33° C | 52% | 1011.8 hPa | 0 mm | - | 51 W/m² | - |
| 1777310175 | 23.33° C | 50% | 1011.9 hPa | 0 mm | - | 54 W/m² | - |
| 1777309869 | 23.33° C | 49% | 1011.9 hPa | 0 mm | - | 60 W/m² | - |
| 1777309749 | 23.33° C | 49% | 1011.8 hPa | 0 mm | - | 63 W/m² | - |
| 1777309509 | 23.33° C | 49% | 1011.8 hPa | 0 mm | - | 69 W/m² | - |
| 1777309148 | 23.33° C | 49% | 1011.8 hPa | 0 mm | - | 72 W/m² | - |
| 1777308848 | 23.89° C | 49% | 1011.8 hPa | 0 mm | - | 76 W/m² | - |
| 1777308378 | 23.89° C | 47% | 1011.8 hPa | 0 mm | - | 81 W/m² | - |
| 1777307949 | 23.89° C | 47% | 1011.8 hPa | 0 mm | - | 86 W/m² | - |
| 1777307529 | 23.89° C | 46% | 1011.9 hPa | 0 mm | - | 104 W/m² | - |
| 1777306629 | 23.89° C | 46% | 1011.8 hPa | 0 mm | - | 271 W/m² | - |
| 1777306577 | 23.89° C | 46% | 1011.8 hPa | 0 mm | - | 267 W/m² | - |
| 1777306268 | 24.44° C | 47% | 1011.8 hPa | 0 mm | - | 118 W/m² | - |
| 1777306089 | 24.44° C | 46% | 1011.9 hPa | 0 mm | - | 232 W/m² | - |
| 1777305788 | 24.44° C | 45% | 1011.8 hPa | 0 mm | - | 299 W/m² | - |
| 1777305729 | 24.44° C | 45% | 1011.7 hPa | 0 mm | - | 295 W/m² | - |
| 1777305668 | 24.44° C | 45% | 1011.7 hPa | 0 mm | - | 278 W/m² | - |
| 1777304775 | 23.89° C | 46% | 1011.9 hPa | 0 mm | - | 302 W/m² | - |
| 1777304528 | 24.44° C | 46% | 1011.8 hPa | 0 mm | - | 348 W/m² | - |
| 1777303989 | 23.89° C | 45% | 1011.9 hPa | 0 mm | - | 151 W/m² | - |
| 1777303809 | 24.44° C | 45% | 1011.9 hPa | 0 mm | - | 376 W/m² | - |
| 1777303574 | 23.89° C | 46% | 1012.1 hPa | 0 mm | - | 355 W/m² | - |
* Rain latest hour (hover to see other rain measurements)
** Current wind speed in m/s (hover to see current wind gust speed)